Location: Corres
(48.9570°N, 8.7796°E)
Time: 08:24:38
(UTC+00:00)

Daily predictions for brighter satellites

Satellite Brightness Start Highest point End
(mag) Time Altitude Azimuth Time Altitude Azimuth Time Altitude Azimuth
Tiangong 2.6 20:13:06 10° SW 20:15:34 21° S 20:18:03 10° SE
Cosmos 1975 Rocket 3.1 20:12:00 10° S 20:16:27 78° E 20:20:54 10° NNE
CARTOSAT-1 3.6 20:13:46 10° SSE 20:18:05 85° ENE 20:22:26 10° NNW
IRAS Rocket 4.3 20:14:09 10° NNE 20:19:47 69° ESE 20:25:19 10° S
Cosmos 1656 4.3 20:15:36 10° NNW 20:20:52 45° NE 20:26:07 10° SE
Cosmos 2084 3.4 20:17:36 10° SSW 20:21:18 46° SE 20:25:01 10° NE
USA 276 2.7 20:26:25 10° SW 20:29:09 32° SSE 20:31:52 10° E
Spot 2 Rocket 3.6 20:26:12 10° SSE 20:31:14 67° ENE 20:36:19 10° N
ATLAS 2AS CENTAUR R/B 2.8 20:24:07 10° NW 20:31:19 88° SW 20:37:59 10° SE
Cosmos 1544 Rocket 3.5 20:28:56 10° N 20:33:17 75° E 20:37:36 10° SSE
Meteor 1-24 Rocket 3.6 20:28:40 10° S 20:33:58 82° E 20:39:25 10° NNE
Lacrosse 5 1.9 20:30:52 10° NW 20:36:00 81° SW 20:40:57 11° SE
Cosmos 1371 Rocket 4.1 20:31:08 10° SSW 20:36:22 88° WNW 20:41:42 10° NNE
USA 234 3.9 20:30:12 10° E 20:36:34 55° NNE 20:42:56 10° WNW
Cosmos 1452 Rocket 4.3 20:32:34 10° SSE 20:37:10 32° E 20:41:46 10° NE
X-37B 1.3 20:36:35 10° SW 20:39:02 27° SSE 20:41:30 10° ESE
Cosmos 1833 Rocket 3.9 20:36:10 10° SSE 20:40:23 22° E 20:44:36 10° NE
Terra 2.1 20:38:02 11° SSE 20:42:35 57° ENE 20:47:17 10° N
FALCON 9 DEB 4.1 20:42:08 10° W 20:45:18 47° NNW 20:48:29 10° ENE
Cosmos 2184 Rocket 4.2 20:40:01 10° N 20:46:07 58° ENE 20:51:50 12° SSE
Resurs 01 Rocket 3.6 20:45:45 10° SSW 20:49:26 25° W 20:53:09 10° NW
Cosmos 724 4.3 20:46:34 10° SSW 20:52:16 60° ESE 20:57:58 10° NE
CZ-4B R/B 3.6 20:52:58 10° NNW 20:55:20 23° WNW 20:57:40 10° WSW
Helios 1A Rocket 3.0 20:51:31 11° S 20:55:25 79° WSW 20:59:33 10° NNW
Cosmos 1624 Rocket 4.4 20:51:30 10° SSW 20:56:43 67° WNW 21:01:55 10° NNE
Lacrosse 5 rocket 2.4 20:55:33 10° WNW 20:59:00 31° SW 21:01:56 14° S
Cosmos 1271 Rocket 3.3 20:56:39 10° NNW 21:00:35 58° W 21:04:25 10° S
Cosmos 2082 Rocket 4.0 21:01:00 11° ESE 21:03:23 15° E 21:06:22 10° ENE
SPOT 3 Rocket 4.5 21:00:30 10° S 21:05:27 45° W 21:10:28 10° NNW
NOSS 2-1 (E) 4.3 21:01:26 10° NW 21:06:00 66° SW 21:11:18 15° SSE
ERS-1 Rocket 3.2 21:03:41 11° S 21:08:28 70° WSW 21:13:31 10° NNW
RESURS DK-1 2.6 21:05:58 10° NNW 21:10:05 60° ENE 21:13:07 17° SE
CZ-2C R/B 3.7 21:11:50 10° NNE 21:16:28 88° E 21:21:00 10° SSW
ARIANE 5 R/B 2.7 21:18:10 17° SSE 21:21:40 83° WSW 21:26:08 10° NNW
Cosmos 1741 Rocket 4.0 21:16:30 10° NNW 21:21:52 89° ENE 21:25:51 18° SSE
Cosmos 2344 4.3 21:18:59 10° NW 21:27:38 74° NE 21:38:57 12° SE
SL-8 R/B 3.6 21:24:03 10° W 21:28:52 74° SSW 21:33:28 11° ESE
GP-B 4.0 21:27:23 10° NNE 21:31:28 35° E 21:33:53 20° SE
Cosmos 1455 4.0 21:28:25 10° NNW 21:31:36 26° W 21:34:47 10° SSW
Cosmos 2074 Rocket 4.3 21:28:25 10° NNW 21:34:39 65° W 21:40:08 13° S
ASTEX 1 3.7 21:34:46 10° NNE 21:39:40 52° E 21:42:46 22° SSE
COSMOS 2406 3.8 21:37:53 19° SSE 21:41:26 39° ESE 21:46:45 10° NE
Cosmos 2369 4.1 21:38:17 10° NNW 21:43:57 56° ENE 21:48:09 18° SE
USA 267 3.2 21:37:47 10° ENE 21:44:18 67° SE 21:50:49 10° SW
SL-16 R/B 4.2 21:40:32 10° N 21:44:46 21° NE 21:48:59 10° E
Cosmos 2228 3.5 21:45:07 10° NNW 21:49:15 53° W 21:52:05 19° SSW
SPOT 5 4.5 21:46:51 10° SSW 21:50:25 23° W 21:53:56 10° NW
Tiangong 3.6 21:50:26 10° SW 21:50:37 10° SW 21:50:37 10° SW
Nadezhda 1 Rocket 4.0 21:47:09 14° S 21:52:33 83° W 21:58:40 10° N
Cosmos 1980 Rocket 2.6 21:46:56 10° NNW 21:52:36 58° ENE 21:56:37 19° SE
Cosmos 1606 Rocket 3.6 21:50:02 10° NNW 21:54:22 73° W 21:56:56 24° S
Cosmos 1703 4.3 21:51:22 11° SSW 21:54:55 42° WNW 21:58:37 10° N
Cosmos 1697 Rocket 2.7 21:49:31 10° NNW 21:55:10 78° WSW 21:58:44 23° SSE
Cosmos 1892 3.5 21:55:58 27° SE 21:57:16 35° E 22:00:44 10° NNE
SJ 16-02 3.9 21:55:55 10° NNE 21:57:48 12° NE 21:59:40 10° ENE
Cosmos 2154 Rocket 4.4 21:53:20 10° NNW 21:59:27 60° W 22:04:14 17° SSW
Cosmos 2084 Rocket 3.6 21:56:24 10° NW 22:00:15 60° NE 22:02:44 22° ESE
Meteor 1-11 4.4 21:57:30 23° SSE 22:00:56 56° E 22:06:24 10° NNE
USA 276 2.0 22:01:40 10° W 22:04:41 82° N 22:07:42 10° ENE
Cosmos 1328 3.9 22:04:04 22° SSW 22:06:34 74° W 22:10:35 10° N
Cosmos 1331 Rocket 4.1 22:04:06 13° SSW 22:08:55 81° WNW 22:14:16 10° NNE
X-37B 1.9 22:11:33 10° WSW 22:12:57 23° SW 22:12:57 23° SW
Cosmos 1408 2.3 22:15:25 38° S 22:16:35 72° E 22:20:02 10° NNE
Lacrosse 5 3.6 22:14:50 10° W 22:18:19 19° WSW 22:20:08 16° SSW
SAR-Lupe-4 4.3 22:15:17 10° N 22:18:46 50° WNW 22:21:00 20° SW
Cosmos 1726 Rocket 4.0 22:14:54 10° NNW 22:19:07 52° W 22:21:23 25° SSW
USA 234 3.2 22:14:25 18° SE 22:19:27 74° SW 22:26:03 10° WNW
Terra 3.8 22:17:13 10° SW 22:20:42 20° W 22:24:12 10° NW
ATLAS 2AS CENTAUR R/B 4.3 22:16:16 10° WNW 22:21:15 21° WSW 22:25:25 12° SSW
FALCON 9 DEB 4.3 22:18:50 10° WNW 22:21:58 41° N 22:25:06 10° E
Cosmos 1833 Rocket 3.0 22:18:12 10° SW 22:23:46 68° WNW 22:29:24 10° NNE
Cosmos 2322 Rocket 3.9 22:19:25 10° NNW 22:24:12 27° NE 22:28:56 10° ESE
Cosmos 1867 3.7 22:22:16 10° NW 22:27:46 77° NE 22:31:18 23° SE
Cosmos 2278 4.0 22:22:59 10° NNW 22:28:43 65° ENE 22:32:24 22° SE
SL-8 Rocket 4.0 22:23:44 10° N 22:30:01 85° W 22:33:46 26° S
ATLAS 5 CENTAUR R/B 3.0 22:30:25 18° ESE 22:30:25 18° ESE 22:32:51 10° ENE
ALOS 2 2.7 22:32:45 31° SSE 22:34:47 68° ENE 22:39:10 10° N
Cosmos 1302 Rocket 3.9 22:31:56 23° SSW 22:35:13 86° ESE 22:40:27 10° NNE
Cosmos 2218 Rocket 4.1 22:35:40 10° N 22:42:06 83° W 22:45:53 27° S
Cosmos 2366 rocket 4.1 22:39:31 10° NNW 22:45:52 79° W 22:49:34 27° S
Cosmos 2082 Rocket 2.2 22:42:49 22° SSW 22:46:34 83° ESE 22:52:19 10° NNE
Cosmos 1602 Rocket 4.0 22:45:32 32° SE 22:47:02 46° E 22:51:11 10° NNE
RESURS DK-1 4.4 22:45:01 10° WNW 22:47:37 16° WSW 22:48:58 14° SW
H-2A R/B 3.4 22:45:19 10° NNE 22:49:32 74° ESE 22:51:09 36° S
Cosmos 2341 Rocket 4.5 22:44:07 10° NNW 22:50:14 53° W 22:54:07 23° SSW
Cosmos 2058 Rocket 3.9 22:48:56 10° NNW 22:53:04 40° W 22:55:04 25° SW
Spot 4 4.3 22:52:43 29° SSW 22:54:53 52° W 22:59:35 10° NNW
Cosmos 1825 2.1 22:58:50 40° SSW 23:00:03 75° W 23:03:49 10° N
Cosmos 2360 Rocket 3.7 22:58:46 10° NNW 23:03:51 32° NE 23:08:55 10° ESE
Cosmos 968 Rocket 4.3 23:00:20 10° NW 23:05:08 39° WSW 23:07:22 26° SSW
ERS-2 2.4 23:01:37 10° NNE 23:05:09 51° ESE 23:05:53 43° SE
Cosmos-2242 3.1 23:02:24 10° N 23:06:39 66° ENE 23:08:16 35° SSE
SL-8 R/B 4.4 23:06:44 10° W 23:11:01 32° SSW 23:11:22 32° SSW
Cosmos 1626 Rocket 3.7 23:10:22 33° SSW 23:12:13 66° WNW 23:16:34 10° N
Cosmos 1869 4.0 23:12:18 10° NNW 23:15:59 42° W 23:17:08 32° SW
Cosmos 1606 3.0 23:13:14 10° N 23:17:03 58° ENE 23:18:18 37° SE
Cosmos 2058 3.8 23:16:21 29° SE 23:17:42 38° E 23:21:36 10° NNE
BREEZE-M DEB (TANK) 4.0 23:14:15 10° W 23:17:50 83° SSW 23:33:02 10° ESE
Cosmos 1934 Rocket 4.5 23:12:36 10° N 23:18:31 50° ENE 23:22:23 21° SE
Cosmos 1825 Rocket 4.0 23:22:58 33° SSE 23:24:27 49° E 23:28:39 10° NNE
ADEOS Rocket 3.7 23:20:28 26° S 23:24:40 61° W 23:32:16 10° NNW
COSMOS 2406 4.3 23:20:16 10° WSW 23:25:43 42° NW 23:31:12 10° NNE
Cosmos 1633 2.5 23:25:15 48° SSW 23:26:04 72° W 23:29:33 10° N
USA 267 3.9 23:20:54 10° ENE 23:27:17 58° NNW 23:33:40 10° W
SL-16 R/B 2.2 23:24:01 10° NNW 23:29:45 85° ENE 23:33:07 26° SSE
Meteor 2-20 4.5 23:32:16 28° SSW 23:35:41 79° W 23:41:49 10° N
Cosmos 1980 Rocket 3.5 23:31:32 10° NW 23:36:13 27° WSW 23:38:22 21° SW
SJ 16-02 1.4 23:32:44 10° NNW 23:37:11 75° ENE 23:39:13 32° SSE
USA 276 2.0 23:37:27 10° WNW 23:40:28 78° N 23:43:29 10° E
Meteor 2-2 Rocket 4.4 23:36:22 10° N 23:42:23 78° ENE 23:45:55 26° SSE
Cosmos 1821 Rocket 4.2 23:36:26 10° NNW 23:42:37 61° W 23:45:54 28° SSW
Cosmos 2219 Rocket 3.9 23:39:14 10° NNW 23:44:13 30° NE 23:49:12 10° ESE
Cosmos 1340 Rocket 3.2 23:48:44 36° SSE 23:49:56 51° E 23:53:46 10° NNE
CZ-2D R/B 4.2 23:47:00 10° NE 23:50:15 16° E 23:53:29 10° SE
